This is the latest recevied weather packets stored in our database for station/object KC3DGM. If no packets are shown the sender has not sent any weather packets the latest 10 day(s).
| Time | Temp. | Humidity | Pressure | Rain* | Wind** | Luminosity | Snow |
|---|---|---|---|---|---|---|---|
| 1777777365 | 2.78° C | 84% | 987.4 hPa | 0 mm | - | 0 W/m² | - |
| 1777777061 | 2.78° C | 84% | 987.6 hPa | 0 mm | - | 0 W/m² | - |
| 1777776759 | 2.78° C | 83% | 987.3 hPa | 0 mm | - | 0 W/m² | - |
| 1777776456 | 2.78° C | 83% | 987.5 hPa | 0 mm | - | 0 W/m² | - |
| 1777776153 | 2.78° C | 83% | 987.7 hPa | 0 mm | - | 0 W/m² | - |
| 1777775850 | 2.78° C | 83% | 987.5 hPa | 0 mm | - | 0 W/m² | - |
| 1777775547 | 2.78° C | 83% | 987.8 hPa | 0 mm | - | 0 W/m² | - |
| 1777775243 | 2.78° C | 82% | 987.9 hPa | 0 mm | - | 0 W/m² | - |
| 1777774943 | 2.78° C | 81% | 987.8 hPa | 0 mm | - | 0 W/m² | - |
| 1777774640 | 2.78° C | 82% | 987.7 hPa | 0 mm | - | 0 W/m² | - |
| 1777774336 | 3.33° C | 82% | 987.8 hPa | 0 mm | - | 0 W/m² | - |
| 1777774034 | 3.33° C | 80% | 987.7 hPa | 0 mm | - | 0 W/m² | - |
| 1777773731 | 3.33° C | 80% | 987.7 hPa | 0 mm | - | 0 W/m² | - |
| 1777773428 | 3.33° C | 79% | 987.5 hPa | 0 mm | - | 0 W/m² | - |
| 1777773125 | 3.33° C | 79% | 987.9 hPa | 0 mm | - | 0 W/m² | - |
| 1777772820 | 3.33° C | 81% | 987.8 hPa | 0 mm | - | 0 W/m² | - |
| 1777772518 | 3.33° C | 80% | 987.7 hPa | 0 mm | - | 0 W/m² | - |
| 1777772215 | 3.33° C | 79% | 987.6 hPa | 0 mm | - | 0 W/m² | - |
| 1777771913 | 3.89° C | 77% | 987.6 hPa | 0 mm | - | 0 W/m² | - |
| 1777771610 | 3.89° C | 74% | 987.6 hPa | 0 mm | - | 0 W/m² | - |
| 1777771307 | 3.89° C | 74% | 987.7 hPa | 0 mm | - | 0 W/m² | - |
| 1777771003 | 3.89° C | 72% | 987.5 hPa | 0 mm | - | 0 W/m² | - |
| 1777770700 | 3.89° C | 72% | 987.5 hPa | 0 mm | - | 0 W/m² | - |
| 1777770396 | 3.89° C | 72% | 987.5 hPa | 0 mm | - | 0 W/m² | - |
| 1777770094 | 4.44° C | 71% | 987.7 hPa | 0 mm | - | 0 W/m² | - |
* Rain latest hour (hover to see other rain measurements)
** Current wind speed in m/s (hover to see current wind gust speed)